• In Lithuania
  • List of Countries
  • For 7 days
  • Water Temperature
  • Satellite Maps
  • Weather Map
  • Weather Widgets
  • user-avatar
    Login

    Hourly Weather Sozopol

    Today, 18 December, Monday

    Time Temperature Precipitation Wind Pressure Humidity
    00:00 +3°C° 0 mm 7 mps 756 mmHg 85%
    01:00 +2°C° 0 mm 7 mps 757 mmHg 84%
    02:00 +1°C° 0 mm 6 mps 758 mmHg 83%
    03:00 +1°C° 0 mm 5 mps 758 mmHg 84%
    04:00 +1°C° 0 mm 5 mps 759 mmHg 85%
    05:00 +1°C° 0 mm 4 mps 759 mmHg 86%
    06:00 +1°C° 0 mm 4 mps 759 mmHg 86%
    07:00 +1°C° 0 mm 3 mps 760 mmHg 87%
    08:00 +1°C° 0 mm 3 mps 760 mmHg 87%
    09:00 +2°C° 0 mm 3 mps 760 mmHg 83%
    10:00 +3°C° 0 mm 3 mps 761 mmHg 79%
    11:00 +4°C° 0 mm 3 mps 761 mmHg 75%
    12:00 +4°C° 0 mm 3 mps 761 mmHg 74%
    13:00 +5°C° 0 mm 3 mps 761 mmHg 73%
    14:00 +5°C° 0 mm 3 mps 760 mmHg 72%
    15:00 +4°C° 0 mm 3 mps 760 mmHg 75%
    16:00 +4°C° 0 mm 3 mps 760 mmHg 77%
    17:00 +4°C° 0 mm 3 mps 760 mmHg 80%
    18:00 +4°C° 0.1 mm 3 mps 760 mmHg 81%
    19:00 +3°C° 0.1 mm 4 mps 760 mmHg 82%
    20:00 +3°C° 0.1 mm 4 mps 760 mmHg 83%
    21:00 +2°C° 0.7 mm 5 mps 760 mmHg 84%
    22:00 +2°C° 0.7 mm 5 mps 761 mmHg 85%
    23:00 +2°C° 0.7 mm 6 mps 761 mmHg 85%

    Tomorrow, 19 December, Tuesday

    Time Temperature Precipitation Wind Pressure Humidity
    00:00 +2°C° 0.7 mm 7 mps 761 mmHg 86%
    01:00 +2°C° 0.7 mm 7 mps 761 mmHg 88%
    02:00 0°C° 0.7 mm 8 mps 761 mmHg 89%
    03:00 0°C° 1.2 mm 8 mps 761 mmHg 90%
    04:00 0°C° 1.2 mm 8 mps 761 mmHg 91%
    05:00 -1°C° 1.2 mm 8 mps 761 mmHg 93%
    06:00 -1°C° 1.1 mm 8 mps 762 mmHg 93%
    07:00 -1°C° 1.1 mm 8 mps 762 mmHg 94%
    08:00 -2°C° 1.1 mm 8 mps 763 mmHg 94%
    09:00 -2°C° 0.7 mm 8 mps 763 mmHg 94%
    10:00 -2°C° 0.7 mm 8 mps 764 mmHg 94%
    11:00 -2°C° 0.7 mm 7 mps 765 mmHg 95%
    12:00 -2°C° 0.7 mm 7 mps 765 mmHg 95%
    13:00 -2°C° 0.7 mm 6 mps 765 mmHg 95%
    14:00 -1°C° 0.7 mm 6 mps 765 mmHg 96%
    15:00 -1°C° 0.2 mm 5 mps 766 mmHg 95%
    16:00 -1°C° 0.2 mm 5 mps 766 mmHg 95%
    17:00 -1°C° 0.2 mm 4 mps 767 mmHg 95%
    18:00 -1°C° 0 mm 4 mps 767 mmHg 95%
    19:00 -2°C° 0 mm 4 mps 767 mmHg 94%
    20:00 -1°C° 0 mm 3 mps 767 mmHg 94%
    21:00 -2°C° 0 mm 3 mps 767 mmHg 94%
    22:00 -2°C° 0 mm 3 mps 768 mmHg 94%
    23:00 -2°C° 0 mm 3 mps 768 mmHg 93%

    Day after tomorrow, 20 December, Wednesday

    Time Temperature Precipitation Wind Pressure Humidity
    00:00 -2°C° 0 mm 3 mps 768 mmHg 93%
    01:00 -2°C° 0 mm 3 mps 768 mmHg 93%
    02:00 -2°C° 0 mm 3 mps 768 mmHg 92%
    03:00 -4°C° 0 mm 3 mps 768 mmHg 92%
    04:00 -4°C° 0 mm 3 mps 768 mmHg 92%
    05:00 -4°C° 0 mm 3 mps 768 mmHg 92%
    06:00 -5°C° 0 mm 3 mps 768 mmHg 92%
    07:00 -5°C° 0 mm 3 mps 768 mmHg 92%
    08:00 -5°C° 0 mm 3 mps 769 mmHg 91%
    09:00 -4°C° 0 mm 3 mps 769 mmHg 89%
    10:00 -1°C° 0 mm 3 mps 769 mmHg 86%
    11:00 0°C° 0 mm 3 mps 769 mmHg 84%
    12:00 0°C° 0 mm 3 mps 769 mmHg 84%
    13:00 0°C° 0 mm 3 mps 769 mmHg 85%
    14:00 +1°C° 0 mm 3 mps 769 mmHg 86%
    15:00 0°C° 0 mm 3 mps 769 mmHg 86%
    16:00 -1°C° 0 mm 2 mps 769 mmHg 87%
    17:00 -2°C° 0 mm 2 mps 769 mmHg 88%
    18:00 -3°C° 0 mm 2 mps 769 mmHg 88%
    19:00 -3°C° 0 mm 2 mps 769 mmHg 87%
    20:00 -3°C° 0 mm 2 mps 769 mmHg 87%
    21:00 -4°C° 0 mm 3 mps 770 mmHg 87%
    22:00 -4°C° 0 mm 3 mps 770 mmHg 87%
    23:00 -4°C° 0 mm 3 mps 770 mmHg 87%

    21 December, Thursday

    Time Temperature Precipitation Wind Pressure Humidity
    00:00 -4°C° 0 mm 3 mps 770 mmHg 87%
    01:00 -4°C° 0 mm 3 mps 770 mmHg 87%
    02:00 -4°C° 0 mm 3 mps 770 mmHg 87%
    03:00 -4°C° 0 mm 3 mps 769 mmHg 87%
    04:00 -4°C° 0 mm 3 mps 769 mmHg 86%
    05:00 -4°C° 0 mm 3 mps 769 mmHg 86%
    06:00 -4°C° 0.1 mm 3 mps 769 mmHg 86%
    07:00 -4°C° 0.1 mm 3 mps 770 mmHg 86%
    08:00 -4°C° 0.1 mm 4 mps 770 mmHg 85%
    09:00 -3°C° 0.1 mm 4 mps 770 mmHg 84%
    10:00 -2°C° 0.1 mm 4 mps 770 mmHg 83%
    11:00 -1°C° 0.1 mm 4 mps 770 mmHg 82%
    12:00 -1°C° 0.1 mm 4 mps 769 mmHg 83%
    13:00 0°C° 0.1 mm 4 mps 769 mmHg 84%
    14:00 0°C° 0.1 mm 4 mps 769 mmHg 85%
    15:00 -1°C° 0 mm 4 mps 768 mmHg 86%
    16:00 -1°C° 0 mm 4 mps 768 mmHg 87%
    17:00 -2°C° 0 mm 4 mps 768 mmHg 87%
    18:00 -2°C° 0.1 mm 4 mps 768 mmHg 87%
    19:00 -2°C° 0.1 mm 4 mps 768 mmHg 88%
    20:00 -2°C° 0.1 mm 4 mps 768 mmHg 88%
    21:00 -2°C° 0.1 mm 4 mps 768 mmHg 88%
    22:00 -2°C° 0.1 mm 4 mps 768 mmHg 88%
    23:00 -2°C° 0.1 mm 4 mps 768 mmHg 88%

    22 December, Friday

    Time Temperature Precipitation Wind Pressure Humidity
    00:00 -3°C° 0 mm 4 mps 768 mmHg 88%
    01:00 -3°C° 0 mm 4 mps 767 mmHg 87%
    02:00 -3°C° 0 mm 4 mps 767 mmHg 87%
    03:00 -3°C° 0 mm 4 mps 767 mmHg 86%
    04:00 -4°C° 0 mm 4 mps 767 mmHg 86%
    05:00 -4°C° 0 mm 3 mps 766 mmHg 85%
    06:00 -4°C° 0 mm 3 mps 766 mmHg 85%
    07:00 -4°C° 0 mm 3 mps 766 mmHg 84%
    08:00 -5°C° 0 mm 3 mps 767 mmHg 84%
    09:00 -2°C° 0 mm 3 mps 767 mmHg 81%
    10:00 -1°C° 0 mm 3 mps 766 mmHg 79%
    11:00 0°C° 0 mm 3 mps 766 mmHg 76%
    12:00 +1°C° 0 mm 3 mps 766 mmHg 76%
    13:00 +1°C° 0 mm 3 mps 765 mmHg 76%
    14:00 +2°C° 0 mm 3 mps 765 mmHg 76%
    15:00 +2°C° 0 mm 2 mps 764 mmHg 77%
    16:00 -1°C° 0 mm 2 mps 764 mmHg 78%
    17:00 -2°C° 0 mm 2 mps 764 mmHg 79%
    18:00 -2°C° 0 mm 2 mps 764 mmHg 79%
    19:00 -2°C° 0 mm 2 mps 763 mmHg 78%
    20:00 -2°C° 0 mm 2 mps 763 mmHg 77%
    21:00 -2°C° 0 mm 2 mps 763 mmHg 76%
    22:00 -2°C° 0 mm 2 mps 762 mmHg 75%
    23:00 -2°C° 0 mm 2 mps 762 mmHg 74%

    23 December, Saturday

    Time Temperature Precipitation Wind Pressure Humidity
    00:00 -2°C° 0 mm 3 mps 761 mmHg 74%
    01:00 -2°C° 0 mm 3 mps 761 mmHg 75%
    02:00 -2°C° 0 mm 3 mps 760 mmHg 75%
    03:00 -2°C° 0 mm 3 mps 759 mmHg 77%
    04:00 -2°C° 0 mm 3 mps 759 mmHg 80%
    05:00 -2°C° 0 mm 3 mps 758 mmHg 83%
    06:00 -2°C° 0 mm 3 mps 757 mmHg 84%
    07:00 -2°C° 0 mm 3 mps 757 mmHg 86%
    08:00 -1°C° 0 mm 3 mps 757 mmHg 87%
    09:00 -2°C° 0 mm 4 mps 756 mmHg 87%
    10:00 -1°C° 0 mm 5 mps 756 mmHg 87%
    11:00 0°C° 0 mm 5 mps 755 mmHg 86%
    12:00 0°C° 0 mm 5 mps 755 mmHg 87%
    13:00 0°C° 0 mm 5 mps 754 mmHg 88%
    14:00 -1°C° 0 mm 6 mps 754 mmHg 88%
    15:00 -1°C° 0.1 mm 6 mps 754 mmHg 89%
    16:00 -1°C° 0.1 mm 6 mps 754 mmHg 89%
    17:00 -2°C° 0.1 mm 7 mps 755 mmHg 90%
    18:00 -2°C° 0.1 mm 7 mps 755 mmHg 89%
    19:00 -2°C° 0.1 mm 8 mps 755 mmHg 89%
    20:00 -4°C° 0.1 mm 8 mps 756 mmHg 89%
    21:00 -4°C° 0.3 mm 8 mps 756 mmHg 90%
    22:00 -4°C° 0.3 mm 8 mps 757 mmHg 90%
    23:00 -4°C° 0.3 mm 8 mps 757 mmHg 91%
    Show more